GAOFEN-2

Last updated on Sat Jul 05 2025 00:02:29 GMT+0000 (Coordinated Universal Time)

1 40118U 14049A 25185.67215789 .00000705 00000+0 98941-4 0 9994 2 40118 98.0586 244.3801 0003213 267.4399 92.6445 14.80556026587820
UTC large
Height (km)
Speed (km/s)
/
Latitude / Longitude
Inclination (degrees)
Orbital Period (minutes)
Azimuth
Elevation
Range (km)
Doppler Factor

Next 0 passes for location: London (51.5072 / 0.1276)

Sorry there are no passes over London.